Location: Moscow
(55.7500°N, 37.5830°E)
Time: 11:40:32
(UTC+03:00)

Vanguard 3 - Pass Details

Date: 05 December 2021
Orbit: 508 x 3260 km, 33.3° (Epoch: 19 January)

Event Time Altitude Azimuth Distance (km) Brightness Sun altitude
Rises 08:24:34 0° 263° (W) 7,130 11.5 -2.7°
Reaches altitude 10° 08:31:11 10° 252° (WSW) 5,857 11.2 -1.9°
Maximum altitude 08:42:29 22° 211° (SSW) 4,184 10.9 -0.7°
Drops below altitude 10° 08:51:01 10° 167° (SSE) 4,288 11.9 0.2°
Sets 08:54:52 0° 152° (SSE) 4,850 12.8 0.6°
